Temperature
-0 -0 -0 -0 0 0 0 0 0 0 0 0 1 1 1 1 1 1 1 1 1 1 1 1 1 1 1 1 1 1 1 0 0 1 1 1 1 1 1 1 1 1 2
-1 -1 -1 -1 -1 -1 -1 -1 -0 -0 -0 -0 -0 0 0 0 0 0 0 0 0 0 0 0 0 0 0 0 0 0 0 -0 -0 -0 -0 0 0 0 0 0 0 0 1
-1 -1 -1 -1 -1 -1 -1 -1 -1 -1 -1 -1 -1 -1 -1 -0 -1 -1 -1 -0 -0 -0 -0 -0 -0 -0 -0 -0 -0 -0 -1 -1 -1 -1 -1 -1 -1 -0 -1 -0 -0 -0 -0
-2 -2 -2 -2 -2 -2 -2 -2 -2 -2 -1 -1 -1 -1 -1 -1 -1 -1 -1 -1 -1 -1 -1 -1 -1 -1 -1 -1 -1 -1 -1 -2 -2 -2 -2 -2 -2 -1 -1 -1 -1 -1 -1
-3 -3 -3 -3 -2 -2 -2 -2 -2 -2 -2 -2 -2 -2 -2 -2 -2 -2 -2 -2 -2 -2 -2 -2 -2 -2 -2 -2 -2 -2 -2 -2 -3 -3 -3 -3 -2 -2 -2 -2 -2 -2 -1
-4 -4 -3 -3 -3 -3 -3 -3 -2 -3 -3 -3 -3 -3 -3 -3 -3 -3 -3 -3 -3 -3 -3 -3 -3 -3 -3 -3 -3 -3 -3 -3 -3 -3 -3 -3 -3 -3 -3 -3 -3 -3 -3
-5 -4 -4 -4 -4 -4 -4 -3 -3 -3 -3 -3 -3 -4 -4 -3 -3 -3 -4 -4 -4 -4 -3 -3 -3 -3 -3 -3 -3 -3 -3 -3 -4 -4 -4 -3 -3 -3 -4 -4 -4 -4 -4
-5 -5 -5 -5 -5 -5 -4 -4 -4 -4 -4 -4 -4 -4 -4 -4 -4 -4 -4 -5 -4 -4 -4 -4 -4 -4 -4 -4 -4 -4 -4 -4 -4 -4 -4 -4 -4 -4 -4 -4 -4 -5 -4
-6 -6 -6 -6 -6 -5 -5 -5 -5 -5 -5 -5 -5 -5 -5 -5 -5 -5 -5 -5 -5 -5 -5 -5 -5 -4 -4 -5 -5 -5 -5 -4 -4 -4 -5 -5 -5 -5 -5 -5 -5 -6 -6
-6 -6 -6 -6 -6 -6 -6 -6 -6 -6 -6 -6 -6 -6 -6 -6 -6 -6 -6 -6 -6 -6 -5 -5 -5 -5 -5 -5 -5 -5 -5 -5 -5 -5 -5 -5 -5 -5 -6 -6 -6 -6 -6
-7 -7 -7 -7 -7 -7 -7 -7 -7 -7 -7 -7 -7 -7 -7 -7 -7 -7 -7 -7 -7 -6 -6 -6 -6 -6 -6 -6 -6 -6 -6 -6 -6 -6 -6 -6 -6 -6 -6 -6 -6 -7 -7
-8 -8 -8 -8 -8 -8 -8 -8 -8 -8 -8 -8 -8 -8 -8 -7 -7 -7 -7 -7 -7 -7 -7 -7 -7 -7 -7 -7 -7 -7 -7 -7 -7 -7 -7 -7 -7 -7 -7 -7 -7 -7 -7
-8 -8 -8 -8 -8 -8 -8 -8 -8 -8 -9 -9 -9 -8 -8 -8 -8 -8 -8 -8 -8 -8 -7 -7 -7 -7 -7 -7 -7 -7 -7 -7 -7 -7 -8 -8 -8 -8 -8 -8 -8 -8 -8
-9 -9 -9 -9 -9 -9 -9 -9 -9 -9 -9 -9 -9 -9 -9 -9 -9 -9 -8 -8 -8 -8 -8 -8 -8 -8 -8 -8 -8 -8 -8 -8 -8 -8 -8 -8 -8 -8 -8 -8 -8 -8 -8
-9 -9 -9 -9 -9 -9 -9 -9 -10 -10 -10 -10 -10 -10 -10 -10 -10 -10 -9 -9 -9 -9 -9 -9 -9 -8 -8 -8 -9 -9 -9 -9 -9 -9 -9 -9 -9 -9 -9 -9 -9 -9 -9
-10 -10 -10 -10 -10 -10 -10 -10 -10 -10 -10 -10 -10 -11 -10 -10 -10 -10 -10 -10 -10 -9 -9 -9 -9 -9 -9 -9 -9 -9 -9 -9 -9 -9 -9 -9 -9 -9 -9 -9 -9 -9 -9
-11 -11 -10 -10 -10 -11 -11 -10 -10 -10 -10 -10 -10 -11 -11 -11 -11 -10 -10 -10 -10 -10 -10 -10 -10 -10 -10 -10 -10 -10 -10 -10 -10 -10 -10 -10 -10 -10 -10 -10 -10 -10 -10
-11 -11 -11 -11 -11 -11 -11 -11 -11 -11 -11 -11 -11 -11 -11 -11 -11 -11 -11 -11 -10 -10 -10 -10 -10 -10 -10 -10 -10 -11 -10 -11 -11 -10 -11 -11 -11 -11 -11 -11 -11 -11 -11
-11 -11 -11 -11 -12 -12 -12 -12 -12 -12 -12 -12 -11 -11 -12 -12 -11 -11 -11 -11 -11 -11 -11 -11 -11 -11 -11 -11 -11 -11 -11 -11 -11 -11 -11 -11 -11 -11 -11 -11 -11 -11 -11
-12 -12 -12 -12 -12 -12 -12 -12 -12 -12 -12 -12 -12 -12 -12 -12 -12 -12 -12 -12 -12 -12 -12 -12 -12 -12 -12 -12 -11 -11 -11 -11 -11 -12 -11 -11 -11 -11 -11 -11 -11 -11 -11
-12 -12 -12 -13 -12 -13 -13 -13 -13 -13 -13 -13 -13 -13 -13 -13 -12 -12 -12 -12 -12 -12 -12 -12 -12 -12 -12 -12 -12 -12 -12 -12 -12 -12 -12 -12 -12 -12 -12 -12 -12 -12 -12
-13 -13 -13 -13 -13 -13 -13 -13 -13 -13 -13 -13 -13 -13 -13 -13 -13 -13 -13 -13 -13 -13 -13 -12 -12 -12 -12 -12 -12 -12 -12 -12 -12 -12 -12 -12 -12 -12 -12 -12 -12 -12 -12
-14 -14 -14 -14 -14 -14 -14 -14 -14 -14 -14 -14 -14 -14 -14 -14 -14 -13 -13 -13 -13 -13 -13 -13 -13 -13 -13 -13 -12 -12 -12 -12 -12 -12 -12 -12 -12 -13 -13 -13 -13 -13 -13
-14 -14 -14 -14 -14 -14 -14 -14 -14 -14 -14 -14 -14 -14 -14 -14 -14 -14 -14 -14 -13 -13 -13 -13 -13 -13 -13 -13 -13 -13 -13 -13 -13 -13 -13 -13 -13 -13 -13 -13 -13 -13 -13
-14 -14 -14 -14 -14 -14 -14 -14 -15 -15 -15 -15 -15 -14 -14 -14 -14 -14 -14 -14 -14 -14 -14 -13 -13 -13 -13 -13 -13 -13 -13 -13 -13 -13 -13 -13 -13 -13 -13 -13 -13 -13 -13
-15 -15 -15 -15 -15 -15 -15 -15 -15 -15 -15 -15 -15 -15 -15 -15 -14 -14 -14 -14 -14 -14 -14 -14 -14 -13 -13 -13 -13 -13 -13 -13 -13 -13 -13 -13 -13 -13 -13 -14 -13 -13 -13
Wind_Speed
2 2 2 2 2 1 2 2 2 2 2 2 3 3 3 3 3 3 3 3 4 4 4 4 4 3 3 2 2 2 3 3 5 4 3 3 3 3 4 6 7 6 7
2 1 2 2 2 2 2 3 2 2 2 3 3 3 3 4 3 4 4 4 4 4 5 4 5 3 3 3 3 3 3 3 4 6 4 2 3 3 3 4 5 6 6
2 1 1 2 2 2 2 3 3 2 2 2 2 3 3 4 4 4 5 4 5 5 5 5 5 4 4 4 4 4 3 3 3 4 4 3 3 3 3 3 4 4 6
2 2 2 3 3 2 2 2 3 2 2 2 2 3 3 4 4 5 4 5 5 5 5 5 5 5 6 5 4 4 3 3 3 3 4 3 3 3 2 3 4 3 5
2 2 3 3 3 2 2 2 2 2 2 2 2 3 3 3 4 4 5 5 5 5 5 5 5 6 7 6 5 4 4 4 3 4 4 4 3 3 3 3 5 4 4
2 3 3 3 3 3 2 2 2 2 2 2 2 3 3 4 6 7 6 5 5 5 5 5 5 6 7 8 8 7 6 6 5 5 5 5 6 4 3 4 3 3 4
2 3 3 3 3 3 3 2 3 3 2 2 3 3 4 5 7 7 7 4 5 5 5 5 5 5 6 4 5 5 6 7 8 6 6 7 6 5 4 4 4 5 5
2 3 3 3 3 3 3 3 3 3 3 3 3 3 3 5 7 7 7 4 4 5 5 6 6 5 5 5 4 4 4 5 6 5 6 6 6 6 6 6 5 4 4
3 3 3 3 3 3 3 3 3 3 3 3 3 3 3 5 7 7 6 3 3 4 5 5 5 6 7 7 5 5 5 5 6 7 7 7 8 8 6 2 3 3 5
4 4 3 3 3 3 3 3 3 3 3 3 3 3 4 5 7 8 6 3 4 4 4 4 7 7 8 7 5 6 6 5 4 3 4 5 4 5 6 4 4 4 4
4 4 3 3 3 3 3 3 2 2 2 2 3 4 4 5 7 8 8 4 4 3 4 4 5 8 8 8 7 5 7 5 3 3 3 2 2 2 3 4 4 4 5
3 3 3 3 3 3 2 2 2 2 2 2 2 3 3 4 5 6 7 7 5 4 4 4 5 8 8 7 5 6 6 5 2 2 3 3 3 3 3 5 5 6 6
3 3 4 4 3 3 3 2 2 1 1 2 2 3 3 3 5 7 8 7 7 5 4 6 6 7 6 5 6 6 4 3 3 3 3 3 3 3 3 3 3 3 4
3 3 3 3 3 3 2 2 2 1 2 2 3 3 4 4 4 4 4 4 6 5 4 5 5 5 4 4 4 3 3 3 3 3 3 2 2 2 2 2 3 2 3
3 3 3 3 3 3 3 2 3 2 3 3 3 3 4 4 5 7 5 4 3 4 2 1 1 1 2 2 1 1 1 1 2 2 2 2 2 2 3 2 2 2 3
2 3 2 2 2 2 3 3 5 5 7 7 7 6 6 8 10 10 9 9 8 6 2 2 2 3 3 3 3 2 2 2 2 2 2 3 3 3 3 3 3 3 4
2 3 2 2 2 3 3 3 3 5 6 6 7 8 8 9 9 10 9 8 7 4 2 2 2 2 3 3 3 3 3 3 2 3 3 3 3 3 3 3 4 4 4
2 4 3 2 2 3 3 3 3 3 4 4 6 8 9 9 9 9 8 5 4 3 1 2 2 2 2 3 3 3 3 2 2 3 3 3 3 3 3 4 4 4 5
3 2 2 2 2 3 3 3 3 3 3 4 4 5 8 8 8 7 7 3 2 2 2 2 2 2 3 3 3 3 3 3 3 3 4 4 4 4 4 4 4 6 5
2 4 4 2 2 2 2 2 3 3 3 3 4 4 5 5 4 4 4 3 2 3 3 3 3 3 3 3 3 3 3 4 4 4 4 4 4 4 4 5 4 4 4
2 3 4 3 2 3 2 3 3 3 3 3 4 5 7 4 3 4 3 3 3 3 3 3 3 3 3 3 3 3 4 4 4 4 4 4 4 3 4 4 4 4 4
2 2 2 2 2 3 3 2 3 3 3 4 4 5 8 4 4 4 4 4 4 4 4 4 3 3 3 3 3 3 4 4 4 4 4 4 3 4 4 4 4 4 4
2 2 2 3 3 4 3 3 3 3 3 4 4 4 4 4 4 4 5 5 5 5 4 4 4 4 5 5 5 4 5 5 5 5 4 4 4 4 4 4 4 4 4
2 2 3 3 3 3 3 3 3 3 4 4 4 4 4 4 5 5 5 5 5 5 5 5 5 6 6 6 6 6 7 7 7 6 6 5 4 4 4 4 4 5 4
2 2 3 3 3 3 3 3 4 4 4 4 4 5 5 5 5 5 5 5 5 5 6 6 6 6 7 7 7 8 8 8 7 6 6 5 5 5 4 4 4 4 4
2 2 3 3 3 3 4 4 4 4 4 4 4 5 5 5 6 6 6 5 5 6 6 6 7 8 8 8 8 8 9 8 8 8 6 5 5 4 4 4 4 4 4
Wind_Direction
318 317 318 292 288 288 286 278 266 267 264 253 241 237 241 240 233 228 233 231 228 237 233 229 235 235 230 235 226 223 231 226 252 273 280 293 288 292 290 286 283 278 277
303 308 313 318 307 291 285 289 276 271 268 264 254 246 247 247 240 228 234 236 229 234 233 229 236 233 233 233 223 225 232 230 240 263 274 274 275 278 283 286 288 282 281
317 320 313 306 301 289 284 291 283 270 271 273 272 258 256 251 244 236 229 236 234 234 231 227 232 228 236 237 231 229 234 243 239 249 266 270 278 280 286 290 292 290 286
326 327 319 303 290 281 288 294 292 273 265 267 271 270 268 262 250 242 234 236 237 238 235 231 229 225 229 231 236 231 230 237 241 244 260 264 269 275 266 274 288 289 289
333 331 318 316 316 311 300 289 290 288 278 266 265 269 271 264 253 246 239 238 235 236 237 234 233 232 233 232 239 231 223 229 239 250 256 259 258 252 252 258 275 288 284
330 322 326 332 333 330 323 318 311 300 292 283 256 255 263 267 264 257 248 237 236 232 237 240 240 238 239 244 245 237 227 226 230 239 250 248 249 243 247 255 269 286 283
325 320 322 324 324 321 323 333 324 311 294 284 277 262 261 266 270 265 258 246 237 236 234 236 246 244 240 233 242 245 241 243 236 229 236 244 244 238 237 247 248 257 267
320 319 322 321 319 319 323 316 311 309 298 285 287 284 283 280 277 273 267 254 241 240 236 233 236 238 232 229 231 236 243 246 242 234 234 240 242 235 226 236 249 266 282
320 313 312 312 313 317 314 306 303 301 301 296 291 293 292 295 292 287 280 252 245 244 241 235 232 231 237 235 226 228 242 253 254 253 256 258 258 255 243 231 243 256 275
312 308 306 309 311 307 300 295 292 287 284 294 298 297 289 289 293 292 287 260 251 253 250 242 245 243 245 236 221 219 234 244 243 258 267 273 268 259 251 235 225 237 262
311 312 314 314 308 299 299 302 294 289 294 295 295 298 291 286 291 291 283 268 254 254 258 252 249 252 252 244 234 228 239 241 229 228 246 257 261 252 246 246 239 232 242
317 319 320 319 316 318 312 310 306 295 298 299 297 301 298 293 296 293 288 282 272 254 254 252 248 254 250 247 243 245 248 246 230 224 232 246 252 258 254 251 246 246 249
328 326 325 325 324 317 310 307 312 313 300 297 293 296 301 302 296 295 291 288 284 274 261 258 257 254 253 248 245 247 247 235 226 230 233 241 248 254 259 262 258 265 275
320 318 319 323 323 321 313 303 298 293 291 291 288 289 292 295 293 293 288 286 284 278 270 263 261 258 255 259 254 249 244 237 232 229 231 238 246 250 254 250 254 266 276
311 310 317 321 318 320 316 299 292 269 267 277 272 274 282 286 287 294 296 290 279 265 265 238 220 235 233 239 241 241 237 242 254 237 225 230 243 255 265 256 245 248 252
306 312 312 313 314 315 317 319 313 305 305 304 298 291 286 288 296 299 298 295 292 281 269 242 232 227 227 229 231 238 242 237 238 238 227 226 235 243 258 262 247 244 252
282 295 296 303 307 308 307 312 319 325 322 319 316 315 309 305 305 304 302 301 299 296 283 263 248 239 239 234 231 233 240 240 233 231 235 235 236 238 244 252 250 250 257
291 294 298 290 292 296 300 303 305 311 320 323 324 324 323 318 315 315 317 322 324 333 302 274 265 255 250 247 242 239 235 233 232 233 236 238 236 238 245 251 251 249 254
299 291 287 287 290 292 297 300 301 306 310 315 323 327 332 335 336 336 340 336 310 305 290 282 273 261 255 250 246 240 235 234 235 234 237 237 236 235 245 249 253 260 260
292 293 299 294 293 295 297 297 300 304 308 311 314 318 322 328 331 331 334 324 309 301 288 279 276 268 258 255 250 242 238 236 236 235 236 236 236 236 243 248 251 255 257
289 290 301 302 294 290 290 290 291 293 297 302 306 309 318 319 314 312 312 310 302 297 291 283 278 273 262 256 253 245 237 237 235 234 233 233 234 241 247 249 251 254 257
284 286 284 283 287 287 288 287 289 289 294 301 309 314 320 324 315 309 306 303 299 292 288 283 275 269 260 253 247 243 245 243 238 232 232 234 237 245 251 252 253 256 254
273 279 284 286 285 285 296 294 289 287 291 295 298 304 309 309 305 301 299 299 301 298 295 286 278 277 276 267 259 248 242 244 244 240 233 239 242 246 248 246 248 252 254
259 264 270 276 281 278 279 283 286 287 288 291 294 297 299 299 299 299 298 299 299 298 297 292 285 278 280 278 274 268 262 258 256 247 237 234 239 245 244 244 246 248 250
257 266 270 269 272 274 277 278 281 284 286 289 291 295 298 299 297 297 299 300 299 297 297 296 292 286 281 281 281 278 268 264 266 259 242 234 234 235 235 237 241 245 247
268 271 273 273 272 272 271 272 275 278 279 283 285 288 291 293 295 296 299 299 299 297 296 296 293 291 290 287 282 276 272 269 267 263 253 237 229 232 231 234 236 238 239
Height
1485 1485 1485 1485 1486 1486 1487 1487 1487 1488 1488 1488 1489 1489 1490 1490 1491 1491 1491 1492 1492 1493 1494 1495 1495 1496 1497 1498 1499 1500 1501 1502 1501 1500 1501 1502 1503 1503 1504 1504 1504 1504 1504
1482 1482 1482 1482 1483 1483 1483 1484 1484 1484 1484 1484 1484 1485 1485 1486 1486 1486 1487 1487 1487 1488 1489 1489 1490 1491 1492 1493 1493 1494 1495 1496 1496 1495 1495 1497 1497 1498 1498 1498 1498 1499 1499
1479 1479 1479 1479 1479 1479 1479 1480 1480 1480 1480 1480 1480 1480 1480 1481 1481 1481 1481 1482 1482 1483 1483 1484 1485 1486 1486 1487 1488 1488 1489 1490 1491 1490 1490 1491 1492 1493 1492 1492 1493 1493 1493
1476 1475 1475 1475 1475 1474 1475 1475 1475 1475 1475 1475 1475 1475 1476 1476 1476 1476 1476 1477 1477 1477 1478 1479 1480 1480 1481 1482 1482 1483 1484 1485 1485 1485 1485 1485 1486 1486 1487 1486 1486 1486 1487
1473 1472 1472 1471 1471 1470 1470 1470 1470 1470 1471 1471 1470 1470 1470 1471 1471 1471 1471 1471 1472 1472 1473 1473 1474 1474 1475 1476 1477 1478 1478 1479 1479 1479 1479 1479 1479 1480 1480 1480 1480 1480 1480
1470 1469 1468 1467 1467 1466 1466 1466 1466 1466 1466 1466 1466 1465 1465 1465 1465 1465 1466 1466 1466 1466 1467 1467 1468 1469 1470 1471 1472 1472 1473 1473 1473 1474 1474 1474 1473 1474 1475 1475 1475 1474 1473
1467 1466 1465 1464 1463 1462 1462 1462 1461 1461 1461 1461 1461 1461 1460 1460 1460 1460 1460 1461 1461 1461 1461 1462 1462 1463 1464 1465 1466 1466 1467 1468 1468 1469 1468 1468 1468 1469 1470 1469 1469 1469 1468
1464 1462 1461 1460 1460 1459 1458 1458 1457 1457 1457 1456 1456 1456 1455 1455 1455 1455 1455 1455 1455 1455 1455 1456 1457 1457 1458 1459 1460 1460 1461 1461 1462 1462 1463 1463 1464 1464 1464 1464 1464 1463 1463
1460 1459 1458 1457 1456 1455 1454 1454 1453 1453 1452 1452 1452 1452 1451 1450 1451 1450 1450 1450 1450 1450 1450 1451 1451 1452 1452 1453 1454 1454 1454 1455 1456 1457 1457 1457 1458 1458 1458 1458 1458 1457 1456
1457 1456 1455 1454 1453 1452 1451 1450 1450 1449 1448 1448 1448 1448 1447 1446 1446 1446 1446 1445 1445 1445 1445 1445 1446 1446 1447 1448 1448 1448 1448 1449 1450 1450 1451 1451 1451 1452 1452 1452 1452 1452 1451
1455 1454 1453 1451 1450 1449 1448 1447 1446 1446 1445 1444 1444 1444 1443 1442 1442 1442 1442 1441 1441 1440 1440 1440 1440 1441 1442 1442 1443 1443 1443 1444 1444 1444 1444 1445 1445 1445 1445 1446 1446 1447 1446
1452 1451 1450 1449 1447 1446 1445 1444 1443 1443 1442 1441 1440 1439 1439 1439 1438 1437 1437 1437 1437 1436 1435 1436 1436 1437 1437 1437 1437 1438 1438 1439 1439 1438 1438 1438 1439 1439 1439 1440 1440 1441 1441
1449 1448 1447 1446 1445 1444 1443 1441 1440 1440 1439 1437 1437 1436 1435 1435 1434 1434 1433 1433 1432 1432 1431 1431 1432 1432 1432 1432 1433 1433 1433 1433 1433 1433 1432 1433 1434 1434 1434 1434 1435 1435 1435
1447 1445 1444 1443 1442 1441 1440 1439 1438 1437 1436 1435 1434 1433 1432 1431 1430 1430 1429 1428 1428 1427 1427 1427 1427 1427 1427 1427 1428 1428 1428 1428 1428 1427 1428 1428 1429 1429 1429 1429 1429 1429 1429
1444 1443 1441 1440 1439 1438 1438 1437 1435 1434 1434 1432 1431 1430 1429 1427 1427 1427 1426 1424 1424 1423 1422 1422 1422 1422 1422 1422 1422 1422 1423 1423 1423 1423 1423 1423 1424 1424 1424 1424 1424 1424 1424
1441 1440 1439 1438 1437 1436 1434 1434 1433 1432 1431 1430 1429 1428 1426 1425 1424 1423 1422 1421 1420 1419 1419 1417 1417 1417 1417 1417 1417 1417 1418 1418 1418 1419 1419 1419 1419 1419 1419 1419 1419 1419 1419
1439 1438 1436 1435 1434 1433 1432 1430 1429 1429 1428 1427 1425 1424 1422 1421 1420 1419 1418 1417 1416 1415 1414 1413 1412 1412 1412 1412 1412 1412 1413 1414 1414 1414 1414 1414 1415 1414 1414 1414 1414 1414 1414
1436 1435 1434 1433 1432 1431 1429 1428 1427 1425 1424 1422 1422 1420 1419 1417 1416 1415 1414 1413 1412 1411 1410 1409 1408 1408 1408 1408 1408 1408 1409 1409 1409 1410 1410 1410 1410 1410 1410 1409 1409 1409 1409
1433 1432 1431 1430 1429 1428 1427 1426 1424 1423 1421 1419 1418 1417 1416 1414 1413 1412 1411 1409 1408 1407 1406 1405 1405 1404 1404 1404 1404 1404 1404 1404 1405 1405 1405 1405 1405 1405 1405 1405 1405 1405 1404
1430 1429 1428 1427 1426 1425 1424 1423 1421 1420 1419 1417 1415 1414 1413 1411 1409 1408 1407 1406 1405 1404 1403 1402 1401 1401 1400 1400 1400 1399 1400 1400 1400 1400 1401 1401 1401 1401 1401 1400 1400 1400 1400
1427 1426 1425 1424 1423 1422 1421 1420 1419 1418 1416 1414 1413 1412 1411 1409 1407 1406 1404 1403 1402 1401 1400 1399 1398 1397 1397 1396 1396 1395 1395 1396 1396 1396 1396 1397 1397 1397 1397 1396 1396 1396 1395
1424 1423 1422 1421 1420 1419 1419 1418 1416 1415 1414 1412 1410 1409 1408 1406 1404 1403 1401 1400 1398 1397 1396 1395 1394 1393 1393 1392 1392 1392 1392 1392 1392 1392 1392 1392 1393 1393 1392 1392 1392 1391 1391
1421 1420 1419 1418 1418 1417 1416 1414 1413 1412 1411 1409 1407 1406 1404 1403 1401 1399 1398 1396 1395 1394 1393 1392 1391 1390 1389 1389 1388 1388 1388 1388 1388 1388 1388 1388 1388 1388 1388 1388 1387 1387 1387
1418 1417 1416 1415 1414 1413 1412 1411 1410 1409 1407 1406 1404 1403 1401 1399 1398 1396 1394 1393 1392 1390 1389 1388 1387 1386 1385 1385 1384 1384 1384 1384 1384 1384 1384 1384 1384 1384 1384 1384 1383 1383 1383
1415 1414 1413 1412 1411 1410 1409 1408 1407 1405 1404 1402 1401 1399 1398 1396 1394 1393 1391 1389 1388 1387 1385 1384 1383 1382 1381 1381 1380 1380 1380 1380 1380 1380 1380 1380 1380 1379 1379 1379 1379 1379 1379
1412 1411 1409 1408 1407 1406 1405 1404 1403 1402 1400 1399 1397 1396 1394 1392 1391 1389 1387 1386 1384 1383 1382 1381 1379 1379 1378 1377 1377 1376 1376 1376 1376 1376 1376 1376 1376 1375 1375 1375 1375 1375 1375